This demonstration page uses our WeatherBlox Daily Observations layout. Learn more.

41.55636, -103.73856

Hourly Observations for April 25, 2019

Temp ( °F °C ) Dew Point ( °F °C ) Humidity (%) Winds ( mph kmh ) Pressure ( in mb ) Visibility ( mi km ) Precip ( " mm )
12:58 am 00:58 Mostly Cloudy 62 16.8 40 4.7 45 45 SSW 8 13 29.76 1008 10 16.0934 0 0
1:58 am 01:58 Mostly Cloudy 61 16 38 3.5 43 43 SSW 10 17 29.76 1008 10 16.0934 0 0
2:58 am 02:58 Mostly Cloudy with Light Showers 51 10.7 46 7.5 81 81 NNE 15 24 29.87 1011 10 16.0934 0.02 0.508
3:58 am 03:58 Mostly Cloudy with Light Showers 50 10 47 8.1 88 88 E 10 17 29.83 1010 10 16.0934 0.02 0.508
4:58 am 04:58 Mostly Cloudy 48 9 46 8 94 94 S 5 7 29.87 1011 10 16.0934 0 0
5:58 am 05:58 Windy with Rain Showers Likely 46 7.6 44 6.7 94 94 N 24 39 29.94 1014 10 16.0934 0 0
6:58 am 06:58 Mostly Cloudy with Light Rain 42 5.6 41 4.8 95 95 N 29 46 30.02 1017 4 6.43736 0.05 1.27
7:58 am 07:58 Cloudy with Light Rain 42 5.3 40 4.4 94 94 NNW 14 22 30.02 1017 10 16.0934 0.02 0.508
8:58 am 08:58 Mostly Cloudy with Light Showers 42 5.3 40 4.4 94 94 NNW 9 15 30.01 1016 10 16.0934 0.01 0.254
9:58 am 09:58 Mostly Cloudy 41 5 38 3.6 91 91 NW 16 26 30.02 1017 10 16.0934 0 0
10:58 am 10:58 Clear 40 4.4 37 2.6 88 88 NW 16 26 30.03 1017 10 16.0934 0 0
11:58 am 11:58 Clear 40 4.4 36 2.4 87 87 NNW 17 28 30.04 1017 10 16.0934 0 0
12:58 pm 12:58 Sunny 40 4.6 37 2.6 87 87 NNW 20 31 30.08 1019 10 16.0934 0 0
1:58 pm 13:58 Sunny 43 6 38 3.1 82 82 NNW 18 30 30.1 1019 10 16.0934 0 0
2:58 pm 14:58 Sunny 47 8.1 38 3.3 72 72 N 18 30 30.14 1021 10 16.0934 0 0
3:56 pm 15:56 Sunny 50 9.9 35 1.6 57 57 N 24 39 30.14 1021 10 16.0934 0 0
4:56 pm 16:56 Sunny 53 11.4 26 -3.1 36 36 N 21 33 30.14 1021 10 16.0934 0 0
5:56 pm 17:56 Sunny 54 12.4 30 -1 40 40 NNE 17 28 30.14 1021 10 16.0934 0 0
6:56 pm 18:56 Mostly Sunny 55 12.9 27 -2.8 34 34 NNE 15 24 30.16 1021 10 16.0934 0 0
7:56 pm 19:56 Mostly Sunny 56 13.6 29 -1.6 35 35 N 13 20 30.14 1021 10 16.0934 0 0
8:56 pm 20:56 Mostly Sunny 58 14.2 27 -2.7 31 31 N 10 17 30.14 1021 10 16.0934 0 0
9:58 pm 21:58 Sunny 58 14.2 27 -2.6 31 31 NNE 13 20 30.14 1021 10 16.0934 0 0
10:58 pm 22:58 Sunny 58 14.4 28 -2.1 32 32 N 9 15 30.14 1021 10 16.0934 0 0
11:58 pm 23:58 Sunny 57 14 27 -2.8 31 31 NNE 5 7 30.14 1021 10 16.0934 0 0

Powered by AerisWeather